Exeter, United Kingdom

3:00 AM GMT on February 12, 2016 (GMT +0000)
Exeter

Weather History for EGTE - October, 2013

Change the Weather History Date:

Friday, October 18, 2013

  Actual Average Record
Temperature  
Mean Temperature 58 °F -  
Max Temperature 61 °F 54 °F 64 °F (1997)
Min Temperature 54 °F 41 °F 33 °F (2007)
Degree Days  
Heating Degree Days 8    
Growing Degree Days 8 (Base 50)    
Moisture  
Dew Point 56 °F    
Average Humidity 90    
Maximum Humidity 100    
Minimum Humidity 76    
Precipitation  
Precipitation 0.03 in - - ()
Sea Level Pressure  
Sea Level Pressure 29.82 in    
Wind  
Wind Speed 11 mph ()    
Max Wind Speed 21 mph    
Max Gust Speed 30 mph    
Visibility 6.2 miles    
Events Rain    
Averages and records for this station are not official NWS values.
T = Trace of Precipitation, MM = Missing Value Source: Averaged Metar Reports

Daily Weather History Graph

Daily Weather History Graph

Search for Another Location

Airport or City:

Trip Planner

Search our weather history database for the weather conditions in past years. The results will help you decide how hot, cold, wet, or windy it might be!

Date:

Astronomy

Oct. 18, 2013 Rise Set
Actual Time 7:41 AM BST 6:15 PM BST
Civil Twilight 7:08 AM BST 6:48 PM BST
Nautical Twilight 6:30 AM BST 7:26 PM BST
Astronomical Twilight 5:52 AM BST 8:04 PM BST
Moon 5:55 PM BST (10/18) 7:00 AM BST (10/18)
Length of Visible Light 11h 40m
Length of Day
10h 33m
Full, 100% of the Moon is Illuminated
Oct 18
Full
Oct 19
Full
Oct 27
Last Quarter
Nov 3
New
Nov 10
First Quarter

Hourly Weather History & Observations

Time (BST) Temp. Dew Point Humidity Pressure Visibility Wind Dir Wind Speed Gust Speed Precip Events Conditions
12:20 AM 55.4 °F 55.4 °F 100% 29.98 in 6.2 mi SE 5.8 mph - N/A   Scattered Clouds
12:50 AM 57 °F 56 °F 95%  in - Calm Calm - -  
12:50 AM 57.2 °F 55.4 °F 94% 29.98 in 6.2 mi SE 5.8 mph - N/A   Mostly Cloudy
1:20 AM 57.2 °F 55.4 °F 94% 29.98 in 6.2 mi SSE 6.9 mph - N/A   Mostly Cloudy
1:50 AM 57.2 °F 55.4 °F 94% 29.98 in 6.2 mi SSE 6.9 mph - N/A   Mostly Cloudy
2:20 AM 57.2 °F 57.2 °F 100% 29.98 in 6.2 mi SSE 5.8 mph - N/A   Mostly Cloudy
3:50 AM 55 °F 54 °F 98%  in - Calm Calm - -  
5:20 AM 57.2 °F 57.2 °F 100% 29.92 in 6.2 mi SE 8.1 mph - N/A   Scattered Clouds
5:50 AM 57.2 °F 57.2 °F 100% 29.92 in 6.2 mi SE 8.1 mph - N/A   Scattered Clouds
6:20 AM 59.0 °F 57.2 °F 94% 29.89 in 6.2 mi SE 9.2 mph - N/A   Scattered Clouds
6:50 AM 59 °F 57 °F 90%  in - Calm Calm - -  
6:50 AM 59.0 °F 57.2 °F 94% 29.89 in 6.2 mi SE 12.7 mph - N/A   Scattered Clouds
7:20 AM 59.0 °F 57.2 °F 94% 29.89 in 6.2 mi SE 12.7 mph - N/A   Scattered Clouds
7:50 AM 59.0 °F 57.2 °F 94% 29.89 in 6.2 mi SE 13.8 mph - N/A   Scattered Clouds
8:20 AM 59.0 °F 57.2 °F 94% 29.89 in 6.2 mi SE 12.7 mph - N/A   Scattered Clouds
8:50 AM 59.0 °F 55.4 °F 88% 29.89 in 6.2 mi SE 11.5 mph - N/A   Partly Cloudy
9:20 AM 59.0 °F 55.4 °F 88% 29.89 in 6.2 mi SE 13.8 mph - N/A Rain Light Rain
9:50 AM 59 °F 56 °F 85%  in - Calm Calm - -  
9:50 AM 59.0 °F 55.4 °F 88% 29.89 in 6.2 mi SE 12.7 mph - N/A Rain Light Rain
10:20 AM 59.0 °F 55.4 °F 88% 29.86 in 6.2 mi SE 13.8 mph - N/A   Partly Cloudy
10:50 AM 59.0 °F 57.2 °F 94% 29.86 in 6.2 mi SE 15.0 mph - N/A   Scattered Clouds
11:20 AM 59.0 °F 57.2 °F 94% 29.86 in 6.2 mi SE 15.0 mph - N/A   Scattered Clouds
11:50 AM 60.8 °F 57.2 °F 88% 29.86 in 6.2 mi SSE 18.4 mph 29.9 mph N/A   Mostly Cloudy
12:20 PM 60.8 °F 55.4 °F 82% 29.86 in 6.2 mi SE 18.4 mph - N/A   Scattered Clouds
12:50 PM 61 °F 56 °F 79%  in - Calm Calm - -  
12:50 PM 60.8 °F 55.4 °F 82% 29.86 in 6.2 mi SSE 17.3 mph - N/A   Scattered Clouds
1:20 PM 60.8 °F 55.4 °F 82% 29.83 in 6.2 mi SSE 20.7 mph - N/A   Partly Cloudy
1:50 PM 60.8 °F 55.4 °F 82% 29.83 in 6.2 mi SE 18.4 mph - N/A   Partly Cloudy
2:20 PM 60.8 °F 55.4 °F 82% 29.80 in 6.2 mi SE 19.6 mph - N/A   Partly Cloudy
2:50 PM 60.8 °F 53.6 °F 77% 29.80 in 6.2 mi SSE 18.4 mph - N/A   Partly Cloudy
3:20 PM 59.0 °F 53.6 °F 82% 29.77 in 6.2 mi SSE 18.4 mph - N/A   Partly Cloudy
3:50 PM 60 °F 54 °F 76%  in - Calm Calm - -  
3:50 PM 59.0 °F 53.6 °F 82% 29.77 in 6.2 mi SSE 16.1 mph - N/A   Scattered Clouds
4:20 PM 59.0 °F 55.4 °F 88% 29.74 in 6.2 mi SE 15.0 mph - N/A   Partly Cloudy
4:50 PM 59.0 °F 55.4 °F 88% 29.74 in 6.2 mi SE 13.8 mph - N/A   Scattered Clouds
5:20 PM 59.0 °F 55.4 °F 88% 29.74 in 6.2 mi SE 17.3 mph - N/A   Scattered Clouds
5:50 PM 59.0 °F 55.4 °F 88% 29.74 in 6.2 mi SE 15.0 mph - N/A Rain Light Rain
6:20 PM 59.0 °F 55.4 °F 88% 29.74 in 6.2 mi SE 16.1 mph - N/A Rain Light Rain
6:50 PM 58 °F 55 °F 86%  in - Calm Calm - -  
6:50 PM 57.2 °F 55.4 °F 94% 29.71 in 5.6 mi SE 13.8 mph - N/A Rain Rain
7:20 PM 57.2 °F 55.4 °F 94% 29.71 in 6.2 mi SE 13.8 mph - N/A Rain Rain
7:50 PM 57.2 °F 55.4 °F 94% 29.71 in 6.2 mi SE 13.8 mph - N/A Rain Light Rain
8:20 PM 57.2 °F 55.4 °F 94% 29.71 in 6.2 mi SE 11.5 mph - N/A Rain Light Rain
8:50 PM 57.2 °F 57.2 °F 100% 29.71 in 6.2 mi SE 15.0 mph - N/A Rain Light Rain
9:20 PM 57.2 °F 55.4 °F 94% 29.71 in 6.2 mi SE 12.7 mph - N/A   Scattered Clouds
9:50 PM 58 °F 55 °F 88%  in - Calm Calm - -  
9:50 PM 57.2 °F 55.4 °F 94% 29.68 in 6.2 mi SSE 13.8 mph - N/A Rain Rain
10:20 PM 57.2 °F 55.4 °F 94% 29.68 in 6.2 mi SE 11.5 mph - N/A   Scattered Clouds
10:50 PM 57.2 °F 55.4 °F 94% 29.68 in 6.2 mi SE 12.7 mph - N/A   Scattered Clouds
11:20 PM 57.2 °F 55.4 °F 94% 29.65 in 6.2 mi SE 13.8 mph - N/A Rain Light Rain